NT2C Weather Reports


Display with metric or nautical units.
time (UTC)temp
F
wind
direction
speed
MPH
gust
MPH
rain 1hr
in
rain 24hr
in
rain mn
in
humidity
%
barometer
mb
20260831151539 83 4 1.0 8.0 0.00 0.00 0.00 77 1011.8
20260831151039 82 61 3.0 8.0 0.00 0.00 0.00 77 1011.9
20260831150539 83 65 1.0 5.0 0.00 0.00 0.00 77 1011.9
20260831150049 83 109 0.0 5.0 0.00 0.00 0.00 77 1011.8
20260831145537 83 13 1.0 5.0 0.00 0.00 0.00 77 1011.8
20260831145037 83 96 1.0 4.0 0.00 0.00 0.00 78 1011.8
20260831144539 82 79 1.0 4.0 0.00 0.00 0.00 77 1011.9
20260831144037 82 108 0.0 4.0 0.00 0.00 0.00 77 1011.8
20260831143536 82 93 0.0 3.0 0.00 0.00 0.00 78 1011.7
20260831143037 82 108 0.0 4.0 0.00 0.00 0.00 80 1011.8
20260831142535 81 27 1.0 4.0 0.00 0.00 0.00 79 1011.8
20260831142033 81 10 0.0 5.0 0.00 0.00 0.00 79 1011.9
20260831141532 81 21 1.0 4.0 0.00 0.00 0.00 80 1011.7
20260831141032 80 20 2.0 5.0 0.00 0.00 0.00 79 1011.7
20260831093009 69 233 0.0 1.0 0.00 0.00 0.00 93 1010.8
20260831092514 69 233 0.0 0.0 0.00 0.00 0.00 93 1010.8
20260831092009 69 233 0.0 0.0 0.00 0.00 0.00 93 1010.7
20260831091514 69 233 0.0 0.0 0.00 0.00 0.00 93 1010.7
20260831091008 69 233 0.0 0.0 0.00 0.00 0.00 93 1010.7
20260831090509 69 233 0.0 0.0 0.00 0.00 0.00 93 1010.8
20260831090008 69 232 0.0 0.0 0.00 0.00 0.00 93 1010.8
20260831085507 70 233 0.0 0.0 0.00 0.00 0.00 93 1010.9
20260831085012 70 233 0.0 0.0 0.00 0.00 0.00 93 1010.9
20260831084509 70 233 0.0 0.0 0.00 0.00 0.00 93 1010.9
20260831084004 70 233 0.0 0.0 0.00 0.00 0.00 93 1010.9
20260831083505 70 233 0.0 0.0 0.00 0.00 0.00 93 1010.8
20260831083005 70 233 0.0 0.0 0.00 0.00 0.00 93 1010.8
20260831082504 70 233 0.0 0.0 0.00 0.00 0.00 92 1010.8
20260831082006 70 233 0.0 0.0 0.00 0.00 0.00 92 1010.8
20260831081503 70 233 0.0 0.0 0.00 0.00 0.00 92 1010.8
20260831081002 70 233 0.0 0.0 0.00 0.00 0.00 92 1010.7
20260831080504 70 233 0.0 0.0 0.00 0.00 0.00 92 1010.8
20260831080000 70 232 0.0 0.0 0.00 0.00 0.00 92 1010.7
20260831075600 70 233 0.0 0.0 0.00 0.00 0.00 92 1010.8
20260831075103 70 233 0.0 0.0 0.00 0.00 0.00 92 1010.8
20260831074558 71 232 0.0 0.0 0.00 0.00 0.00 92 1010.8
20260831074102 71 233 0.0 0.0 0.00 0.00 0.00 92 1010.8
20260831073558 71 233 0.0 0.0 0.00 0.00 0.00 92 1010.8
20260831073058 71 232 0.0 0.0 0.00 0.00 0.00 92 1010.8
20260831072557 71 232 0.0 0.0 0.00 0.00 0.00 92 1010.7
20260831072058 71 233 0.0 0.0 0.00 0.00 0.00 91 1010.7
20260831071557 71 233 0.0 0.0 0.00 0.00 0.00 91 1010.7
20260831071101 71 233 0.0 0.0 0.00 0.00 0.00 91 1010.6
20260831070556 71 233 0.0 0.0 0.00 0.00 0.00 91 1010.6
20260831070058 71 233 0.0 1.0 0.00 0.00 0.00 91 1010.6
20260831065555 71 232 0.0 1.0 0.00 0.00 0.00 91 1010.7
20260831065054 71 233 0.0 0.0 0.00 0.00 0.00 91 1010.7
20260831064607 71 233 0.0 0.0 0.00 0.00 0.00 91 1010.7
20260831064053 71 233 0.0 1.0 0.00 0.00 0.00 91 1010.7
20260831063553 72 234 0.0 1.0 0.00 0.00 0.00 91 1010.8
20260831063053 72 96 0.0 1.0 0.00 0.00 0.00 91 1010.8
20260831062552 72 88 0.0 1.0 0.00 0.00 0.00 91 1010.8
20260831062055 72 89 0.0 1.0 0.00 0.00 0.00 90 1010.8
20260831061550 72 89 0.0 1.0 0.00 0.00 0.00 91 1010.9
20260831061049 72 89 0.0 1.0 0.00 0.00 0.00 90 1010.9
20260831060548 72 89 0.0 2.0 0.00 0.00 0.00 90 1010.9
20260831060049 72 89 0.0 2.0 0.00 0.00 0.00 90 1010.9
20260831055548 72 89 0.0 1.0 0.00 0.00 0.00 90 1010.9
20260831055047 73 86 0.0 1.0 0.00 0.00 0.00 90 1010.9
20260831054600 73 86 0.0 1.0 0.00 0.00 0.00 90 1011.0
20260831054047 73 120 0.0 1.0 0.00 0.00 0.00 90 1011.0
20260831053550 73 120 0.0 1.0 0.00 0.00 0.00 90 1011.1
20260831053046 73 120 0.0 0.0 0.00 0.00 0.00 89 1011.1
20260831052545 73 234 0.0 0.0 0.00 0.00 0.00 89 1011.2
20260831052044 73 234 0.0 0.0 0.00 0.00 0.00 89 1011.3
20260831051546 73 234 0.0 0.0 0.00 0.00 0.00 89 1011.2
20260831051042 73 234 0.0 0.0 0.00 0.00 0.00 88 1011.3
20260831050543 73 234 0.0 0.0 0.00 0.00 0.00 88 1011.4
20260831050042 73 234 0.0 1.0 0.00 0.00 0.00 88 1011.4
20260831045541 73 234 0.0 0.0 0.00 0.00 0.00 88 1011.4
20260831045042 73 234 0.0 0.0 0.00 0.00 0.00 88 1011.4
20260831044547 74 234 0.0 0.0 0.00 0.00 0.00 87 1011.4
20260831044044 74 234 0.0 0.0 0.00 0.00 0.00 87 1011.3
20260831043539 74 234 0.0 0.0 0.00 0.00 0.00 87 1011.2
20260831043038 74 234 0.0 1.0 0.00 0.00 0.00 87 1011.2
20260831042538 74 234 0.0 1.0 0.00 0.00 0.00 87 1011.2
20260831042036 74 234 0.0 1.0 0.00 0.00 0.00 87 1011.3
20260831041549 74 233 0.0 1.0 0.00 0.00 0.00 88 1011.3
20260831041035 74 285 0.0 0.0 0.00 0.00 0.00 88 1011.4
20260831040534 74 285 0.0 0.0 0.00 0.00 0.00 87 1011.3
20260831040039 74 285 0.0 0.0 0.00 0.00 0.00 87 1011.4
20260831035530 74 285 0.0 0.0 0.00 0.00 0.00 87 1011.5
20260831035031 74 285 0.0 0.0 0.00 0.00 0.00 87 1011.4
20260831034531 74 285 0.0 0.0 0.00 0.00 0.00 87 1011.7
20260831034032 74 285 0.0 0.0 0.00 0.00 0.00 87 1011.7
20260831033531 74 285 0.0 0.0 0.00 0.00 0.00 87 1011.8
20260831033031 74 285 0.0 1.0 0.00 0.00 0.00 87 1011.9
20260831032532 74 252 0.0 1.0 0.00 0.00 0.00 87 1011.8
20260831032030 74 252 0.0 1.0 0.00 0.00 0.00 87 1011.9
20260831031531 74 252 0.0 0.0 0.00 0.00 0.00 87 1011.8
20260831031030 74 252 0.0 0.0 0.00 0.00 0.00 87 1012.0
20260831030529 74 252 0.0 1.0 0.00 0.00 0.00 86 1012.0
20260831030030 74 252 0.0 1.0 0.00 0.00 0.00 86 1012.2
20260831025529 74 252 0.0 1.0 0.00 0.00 0.00 86 1012.2
20260831025029 74 252 0.0 1.0 0.00 0.00 0.00 86 1012.3
20260831024529 74 238 0.0 5.0 0.00 0.00 0.00 86 1012.3
20260831024030 74 254 0.0 5.0 0.00 0.00 0.00 85 1012.5
20260831023529 74 236 0.0 2.0 0.00 0.00 0.00 85 1012.2
20260831023028 74 72 0.0 0.0 0.00 0.00 0.00 84 1012.1
20260831022528 74 72 0.0 0.0 0.00 0.00 0.00 84 1012.1
20260831022028 74 72 0.0 0.0 0.00 0.00 0.00 84 1012.1
20260831021528 74 72 0.0 0.0 0.00 0.00 0.00 84 1012.1
20260831021028 74 72 0.0 0.0 0.00 0.00 0.00 84 1012.2
20260831020528 74 72 0.0 0.0 0.00 0.00 0.00 83 1012.1
20260831020028 74 72 0.0 0.0 0.00 0.00 0.00 83 1012.1
20260831015527 74 72 0.0 0.0 0.00 0.00 0.00 83 1012.1
20260831015027 74 72 0.0 0.0 0.00 0.00 0.00 83 1012.1
20260831014533 74 72 0.0 0.0 0.00 0.00 0.00 82 1012.2
20260831014027 74 72 0.0 0.0 0.00 0.00 0.00 82 1012.1
20260831013527 75 72 0.0 0.0 0.00 0.00 0.00 82 1012.2
20260831013027 75 72 0.0 1.0 0.00 0.00 0.00 82 1012.1
20260831012527 75 72 0.0 1.0 0.00 0.00 0.00 82 1012.1
20260831012026 75 72 0.0 1.0 0.00 0.00 0.00 82 1012.1
20260831011534 75 72 0.0 1.0 0.00 0.00 0.00 81 1012.1
20260831011026 75 72 0.0 1.0 0.00 0.00 0.00 82 1012.0
20260831010526 75 71 0.0 1.0 0.00 0.00 0.00 81 1012.0
20260831010026 75 69 0.0 3.0 0.00 0.00 0.00 81 1012.0
20260831005520 76 4 0.0 3.0 0.00 0.00 0.00 80 1011.9
20260831005020 76 46 0.0 2.0 0.00 0.00 0.00 80 1011.8
20260831004520 77 27 0.0 3.0 0.00 0.00 0.00 79 1011.8
20260831004020 77 34 0.0 2.0 0.00 0.00 0.00 79 1011.7
20260831003520 77 354 0.0 2.0 0.00 0.00 0.00 78 1011.7
20260831003020 78 316 0.0 2.0 0.00 0.00 0.00 77 1011.7
20260831002520 78 224 0.0 1.0 0.00 0.00 0.00 77 1011.4
20260831002019 78 224 0.0 1.0 0.00 0.00 0.00 77 1011.3
20260831001519 78 223 0.0 2.0 0.00 0.00 0.00 76 1011.2
20260831001020 78 210 0.0 3.0 0.00 0.00 0.00 76 1011.0
20260831000519 77 172 0.0 3.0 0.00 0.00 0.00 77 1011.2
20260831000019 77 190 0.0 1.0 0.00 0.00 0.00 77 1011.2
20260830235518 77 167 0.0 0.0 0.00 0.00 0.00 77 1011.3
20260830235020 77 167 0.0 2.0 0.00 0.00 0.00 76 1011.3
20260830234519 78 174 0.0 3.0 0.00 0.00 0.00 75 1011.4
20260830234018 78 238 0.0 6.0 0.00 0.00 0.00 75 1011.6
20260830233517 79 233 0.0 7.0 0.00 0.00 0.00 74 1011.7
20260830233019 79 285 2.0 8.0 0.00 0.00 0.00 73 1011.8
20260830232517 80 275 2.0 11.0 0.00 0.00 0.00 74 1011.9
20260830232016 81 205 4.0 11.0 0.00 0.00 0.00 73 1011.9
20260830231516 82 308 2.0 8.0 0.00 0.00 0.00 73 1011.9
20260830231020 82 240 3.0 7.0 0.00 0.00 0.00 73 1011.9
20260830230520 83 212 0.0 4.0 0.00 0.00 0.00 74 1011.9
20260830230016 83 242 1.0 3.0 0.00 0.00 0.00 73 1011.8
20260830225516 83 238 1.0 4.0 0.00 0.00 0.00 73 1011.7
20260830225015 83 220 0.0 4.0 0.00 0.00 0.00 73 1011.6
20260830224515 83 243 0.0 2.0 0.00 0.00 0.00 73 1011.5
20260830224015 84 243 0.0 2.0 0.00 0.00 0.00 72 1011.4
20260830223515 84 231 0.0 2.0 0.00 0.00 0.00 72 1011.4
20260830223015 84 232 0.0 2.0 0.00 0.00 0.00 72 1011.2
20260830222514 84 203 0.0 4.0 0.00 0.00 0.00 71 1011.1
20260830222015 84 205 1.0 4.0 0.00 0.00 0.00 71 1011.2
20260830221514 84 214 1.0 5.0 0.00 0.00 0.00 70 1011.1
20260830221017 84 203 2.0 5.0 0.00 0.00 0.00 70 1011.1
20260830220514 85 221 1.0 4.0 0.00 0.00 0.00 70 1011.2
20260830220019 85 227 1.0 4.0 0.00 0.00 0.00 70 1011.1
20260830215513 85 171 1.0 6.0 0.00 0.00 0.00 69 1011.1
20260830215013 85 222 3.0 6.0 0.00 0.00 0.00 68 1011.2
20260830214512 86 210 1.0 8.0 0.00 0.00 0.00 68 1011.0
20260830214112 86 184 3.0 8.0 0.00 0.00 0.00 67 1011.1
20260830213512 87 202 1.0 10.0 0.00 0.00 0.00 67 1011.1
20260830213011 87 213 5.0 10.0 0.00 0.00 0.00 66 1011.1
20260830212512 87 181 3.0 9.0 0.00 0.00 0.00 66 1011.1
20260830212012 87 170 4.0 9.0 0.00 0.00 0.00 67 1011.1
20260830211515 87 155 4.0 10.0 0.00 0.00 0.00 66 1011.1
20260830211011 87 221 3.0 10.0 0.00 0.00 0.00 67 1011.0
20260830210511 87 224 3.0 7.0 0.00 0.00 0.00 67 1010.9
20260830210011 87 146 2.0 9.0 0.00 0.00 0.00 67 1011.0
20260830205511 87 202 5.0 9.0 0.00 0.00 0.00 67 1010.9
20260830205009 87 218 4.0 9.0 0.00 0.00 0.00 67 1010.9
20260830204509 87 223 4.0 11.0 0.00 0.00 0.00 67 1010.9
20260830204009 87 235 4.0 11.0 0.00 0.00 0.00 67 1010.9
20260830203509 87 231 3.0 7.0 0.00 0.00 0.00 67 1011.0
20260830203010 87 205 3.0 9.0 0.00 0.00 0.00 67 1011.1
20260830202511 87 237 4.0 9.0 0.00 0.00 0.00 67 1011.1
20260830202008 87 160 4.0 9.0 0.00 0.00 0.00 66 1011.2
20260830201508 88 168 4.0 7.0 0.00 0.00 0.00 66 1011.3
20260830201106 87 120 2.0 8.0 0.00 0.00 0.00 67 1011.3
20260830200506 87 186 3.0 13.0 0.00 0.00 0.00 67 1011.4
20260830200006 87 231 6.0 13.0 0.00 0.00 0.00 66 1011.3
20260830195505 87 231 3.0 10.0 0.00 0.00 0.00 68 1011.3
20260830195005 87 239 4.0 12.0 0.00 0.00 0.00 67 1011.4
20260830194505 87 165 6.0 13.0 0.00 0.00 0.00 67 1011.4
20260830194010 88 231 4.0 9.0 0.00 0.00 0.00 66 1011.5
20260830193504 87 147 3.0 9.0 0.00 0.00 0.00 67 1011.4
20260830193009 87 229 4.0 10.0 0.00 0.00 0.00 67 1011.4
20260830192502 87 207 5.0 13.0 0.00 0.00 0.00 67 1011.6
20260830192002 87 224 6.0 13.0 0.00 0.00 0.00 67 1011.7
20260830191505 87 244 4.0 9.0 0.00 0.00 0.00 67 1011.8
20260830191000 87 195 5.0 9.0 0.00 0.00 0.00 67 1011.9
20260830190600 87 218 3.0 9.0 0.00 0.00 0.00 68 1012.0
20260830190059 87 230 4.0 9.0 0.00 0.00 0.00 67 1012.1
20260830185601 86 176 4.0 11.0 0.00 0.00 0.00 69 1012.4
20260830185057 86 248 6.0 11.0 0.00 0.00 0.00 68 1012.4
20260830184556 86 236 4.0 10.0 0.00 0.00 0.00 68 1012.5
20260830184054 86 201 2.0 11.0 0.00 0.00 0.00 70 1012.7
20260830183555 86 173 6.0 11.0 0.00 0.00 0.00 68 1012.6
20260830183056 86 311 3.0 11.0 0.00 0.00 0.00 69 1012.8
20260830182555 86 191 4.0 9.0 0.00 0.00 0.00 69 1012.8
20260830182053 86 186 4.0 11.0 0.00 0.00 0.00 68 1012.9
20260830181552 86 204 5.0 8.0 0.00 0.00 0.00 69 1013.0
20260830181051 86 216 2.0 9.0 0.00 0.00 0.00 70 1013.1
20260830180549 85 217 2.0 9.0 0.00 0.00 0.00 70 1013.1
20260830180057 85 211 3.0 10.0 0.00 0.00 0.00 70 1013.3
20260830175547 85 243 5.0 11.0 0.00 0.00 0.00 70 1013.4
20260830175049 85 225 3.0 11.0 0.00 0.00 0.00 70 1013.5
20260830174554 85 233 1.0 8.0 0.00 0.00 0.00 72 1013.6
20260830174045 84 205 2.0 8.0 0.00 0.00 0.00 72 1013.6
20260830173542 84 162 2.0 8.0 0.00 0.00 0.00 72 1013.7
20260830173055 84 203 4.0 9.0 0.00 0.00 0.00 72 1013.8
20260830172542 84 240 4.0 11.0 0.00 0.00 0.00 72 1013.8
20260830172041 83 224 5.0 11.0 0.00 0.00 0.00 73 1013.9
20260830171540 83 249 2.0 11.0 0.00 0.00 0.00 74 1013.9
20260830171039 83 221 3.0 11.0 0.00 0.00 0.00 74 1014.0
20260830170539 83 271 3.0 6.0 0.00 0.00 0.00 72 1014.1
20260830170037 83 219 2.0 9.0 0.00 0.00 0.00 73 1014.1
20260830165537 82 221 5.0 11.0 0.00 0.00 0.00 73 1014.2
20260830165036 82 117 5.0 11.0 0.00 0.00 0.00 73 1014.3
20260830164539 82 168 4.0 11.0 0.00 0.00 0.00 74 1014.3
20260830164034 82 163 7.0 14.0 0.00 0.00 0.00 74 1014.4
20260830163533 81 242 5.0 14.0 0.00 0.00 0.00 74 1014.4
20260830163036 81 232 4.0 11.0 0.00 0.00 0.00 75 1014.4
20260830162533 81 190 4.0 11.0 0.00 0.00 0.00 75 1014.5
20260830162031 81 237 5.0 11.0 0.00 0.00 0.00 74 1014.6
20260830161535 81 219 5.0 14.0 0.00 0.00 0.00 74 1014.7
20260830161132 81 236 5.0 14.0 0.00 0.00 0.00 75 1014.6
20260830160530 81 220 5.0 9.0 0.00 0.00 0.00 76 1014.6
20260830160030 81 237 3.0 10.0 0.00 0.00 0.00 77 1014.6
20260830155529 80 240 4.0 13.0 0.00 0.00 0.00 77 1014.7
20260830155129 80 234 8.0 13.0 0.00 0.00 0.00 77 1014.7
20260830154528 80 243 6.0 12.0 0.00 0.00 0.00 77 1014.7
20260830154028 81 245 3.0 9.0 0.00 0.00 0.00 77 1014.7
20260830153527 80 224 4.0 12.0 0.00 0.00 0.00 77 1014.8
20260830153027 80 206 6.0 12.0 0.00 0.00 0.00 77 1014.8
20260830152525 80 224 2.0 10.0 0.00 0.00 0.00 78 1014.8
20260830152025 79 224 2.0 8.0 0.00 0.00 0.00 78 1014.8